www.pogodaiklimat.ru

Погода и климат >> Архив погоды >> Новая Зеландия >> Таупо


ПОГОДА на Таупо

  • Прогноз погоды на Таупо
  • Монитор погоды на Таупо

АРХИВ ПОГОДЫ на Таупо

Время (UTC), дата Ветер
(напр.,м/с)
 
Видим.   Явления Облачность Т
(С)
Тd
(С)
f
(%)
Тe
(С)
Тes
(С)
Комфортность P
(гПа)
Po
(гПа)
Тmin
(С)
Tmax
(С)
R
(мм)
R24
(мм)
S
(см)
21 15.08 З 5 20 км н/о +7.7 +6.4 91 +4 +4 1016.7 967.6
00 16.08 З 6 20 км н/о +10.0 +5.4 73 +7 +7 1015.2 966.6 +4.2
03 16.08 З 5 20 км н/о +10.5 +7.0 79 +8 +8 1013.1 964.7
06 16.08 З 6 20 км н/о +9.3 +4.9 74 +6 +6 1013.6 964.9
09 16.08 З 5 20 км н/о +7.9 +5.5 85 +4 +4 1013.9 965.0
12 16.08 СЗ 3 20 км н/о +8.1 +5.4 83 +5 +5 1013.8 964.9 +10.8
15 16.08 СЗ 3 20 км н/о +7.6 +5.8 88 +5 +5 1012.0 963.1
18 16.08 СЗ 3 20 км н/о +8.2 +6.2 87 +5 +5 1011.3 962.6
21 16.08 С 3 20 км н/о +8.9 +7.3 90 +7 +7 1012.0 963.4
00 17.08 СЗ 5 20 км н/о +11.2 +7.2 76 +9 +9 1010.8 962.6 +7.4
03 17.08 З 5 20 км н/о +11.8 +7.5 75 +9 +9 1009.1 961.1
06 17.08 С 3 10 км н/о +9.4 +8.4 93 +7 +7 1009.3 960.9 2
09 17.08 СЗ 1 20 км н/о +9.7 +7.9 89 +9 +9 1010.8 962.3
12 17.08 ЮВ 6 20 км н/о +5.1 +3.5 89 -0 -0 1014.5 965.1 +13.1 3
15 17.08 ЮВ 7 20 км н/о +5.1 +1.9 80 -0 -0 1016.2 966.7
18 17.08 Ю 7 20 км н/о +4.7 +0.1 72 -1 -1 1018.1 968.5 0.2
21 17.08 ЮВ 9 20 км н/о +5.3 -0.2 68 -0 -0 1021.0 971.3
00 18.08 ЮВ 8 20 км н/о +7.4 -0.2 59 +3 +3 1022.0 972.6 +4.6 5
03 18.08 ЮВ 10 20 км н/о +7.7 -0.8 55 +3 +3 1021.6 972.3
06 18.08 ЮВ 5 20 км н/о +3.4 +0.6 82 -2 -2 1024.8 974.6
09 18.08 В 2 20 км н/о -0.3 -2.2 87 -3 -3 1027.3 976.2
12 18.08 В 2 20 км н/о +0.6 -1.2 88 -3 -3 1027.9 977.0 +8.6
15 18.08 В 3 20 км н/о -0.5 -1.7 92 -5 -5 1028.4 977.2
18 18.08 В 3 20 км н/о -1.2 -1.5 98 -6 -6 1028.8 977.5
21 18.08 В 2 20 км н/о +4.1 +1.0 80 +1 +1 1027.9 977.7
00 19.08 СЗ 3 20 км н/о +8.0 +0.4 59 +6 +6 1027.1 977.6 -3.1
03 19.08 С 3 20 км н/о +9.9 -0.1 50 +8 +8 1024.0 975.0
06 19.08 СВ 2 20 км н/о +5.2 +1.0 74 +3 +3 1024.7 974.8
09 19.08 В 1 20 км н/о -0.4 -1.4 93 -3 -3 1026.2 975.2
12 19.08 С 1 20 км н/о +2.0 +1.5 96 0 0 1025.2 974.7 +10.5
15 19.08 СВ 2 20 км н/о +3.8 +2.3 90 +1 +1 1022.8 972.8
18 19.08 В 2 20 км н/о +3.8 +2.0 88 +1 +1 1020.3 970.4
21 19.08 В 2 20 км н/о +5.7 +4.4 91 +4 +4 1018.8 969.3
00 20.08 СВ 4 10 км н/о +7.8 +5.8 87 +4 +4 1015.1 966.1 -1.4
03 20.08 СВ 6 4000 м н/о +8.3 +7.5 95 +4 +4 1010.7 962.0
06 20.08 СВ 3 20 км н/о +7.3 +6.6 95 +4 +4 1008.7 959.9 0.4
09 20.08 СВ 6 20 км н/о +7.6 +5.7 88 +3 +3 1006.1 957.5
12 20.08 СВ 6 10 км н/о +7.9 +6.7 92 +4 +4 1002.4 954.0 +8.9 0.2
15 20.08 В 2 10 км н/о +7.7 +7.6 99 +5 +5 998.6 950.4
18 20.08 СВ 4 20 км н/о +8.8 +8.2 96 +6 +6 996.4 948.5 4
21 20.08 СВ 3 10 км н/о +8.3 +8.1 99 +6 +6 996.5 948.5
00 21.08 З 2 2000 м н/о +9.0 +8.8 99 +7 +7 995.5 947.7 +7.2 10
03 21.08 З 7 20 км н/о +11.1 +7.2 77 +8 +8 994.6 947.1
06 21.08 З 8 20 км н/о +8.2 +3.2 71 +4 +4 996.5 948.5 0.2
09 21.08 СЗ 4 20 км н/о +7.2 +4.7 84 +4 +4 998.4 950.1
12 21.08 СВ 2 20 км н/о +7.1 +6.0 93 +5 +5 997.8 949.5 +11.1
15 21.08 СВ 6 20 км н/о +7.9 +7.1 95 +4 +4 995.1 947.1
18 21.08 СВ 2 2000 м н/о +8.9 +8.5 97 +7 +7 993.8 946.0 3
21 21.08 СЗ 4 20 км н/о +9.4 +7.9 90 +7 +7 994.1 946.4
00 22.08 СЗ 3 20 км н/о +8.6 +7.4 92 +6 +6 993.7 945.9 +6.7 6
03 22.08 СЗ 4 4000 м н/о +8.2 +7.0 92 +5 +5 992.8 945.0
06 22.08 СЗ 4 20 км н/о +7.4 +5.0 85 +4 +4 995.6 947.5 5
09 22.08 С 2 20 км н/о +6.8 +6.2 96 +4 +4 997.7 949.4
12 22.08 СВ 3 20 км н/о +6.8 +6.1 95 +4 +4 998.7 950.3 +11.8 0.2
15 22.08 СВ 3 10 км н/о +7.2 +6.7 97 +4 +4 996.9 948.7
18 22.08 СВ 2 4000 м н/о +7.1 +7.0 99 +5 +5 996.2 948.0 3

 

Местоположение метеостанции Таупо (Новая Зеландия): широта -38.73 долгота 176.06 высота над уровнем моря 401 м.

В архиве по умолчанию представлена погода на Таупо за последнюю неделю. Архивные данные за месяц целиком и за предыдущие месяцы, начиная с января 2011 года, Вы можете получить, выбрав интересующий диапазон дат из раскрывающегося списка и нажав кнопку "Ввод!".


*Определитесь, кто Вы:
робот инопланетянин человек

Внимание! Время в таблицах - всемирное. Для получения местного времени необходимо прибавить поправку, которая равна 12 ч.

Смотрите также архив погоды в соседних городах и на ближайших метеорологических станциях:

Погода на Уэйауру (Новая Зеландия) (86 км)
Погода в Нейпире (Новая Зеландия) (105 км)
Погода в Тауранге (Новая Зеландия) (120 км)
Погода в Тахароа (Новая Зеландия) (133 км)
Погода в Нью-Плимуте (Новая Зеландия) (166 км)
Погода в Гисборне (Новая Зеландия) (167 км)
Погода в Пальмерстон-Норте (Новая Зеландия) (180 км)
Погода в Окленде (Новая Зеландия) (222 км)
Погода в Хикс-Бей (Новая Зеландия) (236 км)
Погода в Каслпойнт (Новая Зеландия) (242 км)

Пояснения к столбцам:

Ветер - указаны скорость ветра в м/с - средняя за 10 мин, порывы в срок и между сроками (в фигурных скобках) и направление, откуда дует ветер: С - северный, СВ - северо-восточный, В - восточный, ЮВ - юго-восточный, Ю - южный, ЮЗ - юго-западный, З - западный, СЗ - северо-западный.
Видимость - горизонтальная дальность видимости в метрах или километрах. При видимости от 1 до 10 км при отсутствии осадков обычно наблюдается дымка, при ухудшении видимости до 1 км и менее - туман. В сухую погоду видимость может ухудшаться дымом, пылью или мглою.
Явления - указаны атмосферные явления, наблюдавшиеся в срок или в последний час перед сроком; фигурными скобками обозначены явления, наблюдавшиеся между сроками (за 1-3 часа до срока); квадратными скобками обозначены град или гололедные отложения с указанием их диаметра в мм.
Облачность - указаны через наклонную черту общая и нижняя облачность в баллах и высота нижней границы облаков в метрах; квадратными скобками обозначены формы облаков: Ci - перистые, Cs - перисто-слоистые, Cc - перисто-кучевые, Ac - высококучевые, As - высокослоистые, Sc - слоисто-кучевые, Ns - слоисто-дождевые, Cu - кучевые, Cb - кучево-дождевые. Подробнее классификацию облаков см. в Атласе облаков (PDF).
T - Температура воздуха - температура, измеренная на высоте 2 м над землей.
Td - Температура точки росы - температура, при понижении до которой содержащийся в воздухе водяной пар достигнет насыщения.
f - Относительная влажность воздуха - влажноcть воздуха, измеренная на высоте 2 м над землей.
Te - Эффективная температура - температура, которую ощущает одетый по сезону человек в тени. Характеристика душности погоды. При расчете учитывается влияние влажности воздуха и скорости ветра на теплоощущения человека.
Tes - Эффективная температура на солнце - температура, которую ощущает человек, с поправкой на солнечный нагрев. Характеристика знойности погоды. Зависит от высоты солнца над горизонтом, облачности и скорости ветра. Ночью, в пасмурную погоду, а также при ветре 12 м/с и более поправка равна нулю.
P - Атмосферное давление - приведенное к уровню моря атмосферное давление.
Po - Атмосферное давление - измеренное на уровне метеостанции атмосферное давление.
Tmin - Минимальная температура - минимум температуры воздуха на высоте 2 м над землей.
Tmax - Максимальная температура - максимум температуры воздуха на высоте 2 м над землей.
R - Количество осадков - Количество выпавших осадков за период времени, мм. При наведении курсора мыши на число - период времени, за который выпало указанное количество осадков.
R24 - Количество осадков - Количество выпавших осадков за 24 часа, мм.
S - Снежный покров - Высота снежного покрова, см. При наведении курсора мыши на число - состояние снежного покрова и степень покрытия местности в баллах.